Tracking 31028 objects as of 17-Jul-2025
HD Live streaming from Space Station
objects crossing your sky now

SL-16 DEB

Track SL-16 DEB now!
10-day predictions


NORAD ID: 22615
Int'l Code: 1993-016Z
Perigee: 826.7 km
Apogee: 1,018.6 km
Inclination: 71.0 °
Period: 103.3 minutes
Semi major axis: 7293 km
RCS: 0.015 m2 (small)
Launch date: March 26, 1993
Source: Commonwealth of Independent States (former USSR) (CIS)
Launch site: TYURATAM MISSILE AND SPACE COMPLEX (TTMTR)

Note: This is SATELLITE DEBRIS
Your satellite tracking list
Your tracking list is empty




NASA's NSSDC Master Catalog

Two Line Element Set (TLE):
1 22615U 93016Z   25197.62055068  .00000485  00000-0  37552-3 0  9993
2 22615  71.0025  31.1150 0131507 253.9285 166.3949 13.93749351634999
Source of the keplerian elements: AFSPC